| time (UTC) | temp F | wind direction | speed knots | gust knots | rain 1hr in | rain 24hr in | rain mn in | humidity % | barometer mb |
| 20260505111508 | 48 | 153 | 7.8 | 19.1 | 0.00 | 0.00 | 0.00 | 91 | 1013.0 |
| 20260505101524 | 46 | 187 | 8.7 | 17.4 | 0.00 | 0.00 | 0.00 | 93 | 1012.3 |
| 20260505100011 | 45 | 167 | 8.7 | 15.6 | 0.00 | 0.00 | 0.00 | 94 | 1012.3 |
| 20260505094531 | 45 | 183 | 7.8 | 14.8 | 0.00 | 0.00 | 0.00 | 94 | 1012.1 |
| 20260505093020 | 44 | 180 | 7.0 | 15.6 | 0.00 | 0.00 | 0.00 | 94 | 1012.1 |
| 20260505091526 | 44 | 202 | 6.1 | 13.9 | 0.00 | 0.00 | 0.00 | 94 | 1012.0 |
| 20260505090026 | 44 | 156 | 7.0 | 12.2 | 0.00 | 0.00 | 0.00 | 93 | 1012.0 |
| 20260505084514 | 44 | 162 | 6.1 | 11.3 | 0.00 | 0.00 | 0.00 | 93 | 1012.0 |
| 20260505083002 | 44 | 169 | 4.3 | 13.9 | 0.00 | 0.00 | 0.00 | 93 | 1012.1 |
| 20260505081503 | 44 | 152 | 6.1 | 13.0 | 0.00 | 0.00 | 0.00 | 93 | 1012.0 |
| 20260505080006 | 44 | 136 | 5.2 | 10.4 | 0.00 | 0.00 | 0.00 | 93 | 1012.0 |
| 20260505074530 | 44 | 141 | 4.3 | 13.0 | 0.00 | 0.00 | 0.00 | 92 | 1012.0 |
| 20260505073012 | 44 | 175 | 6.1 | 13.9 | 0.00 | 0.00 | 0.00 | 92 | 1011.9 |
| 20260505071517 | 44 | 173 | 5.2 | 13.9 | 0.00 | 0.00 | 0.00 | 92 | 1011.8 |
| 20260505070003 | 45 | 165 | 7.8 | 13.9 | 0.00 | 0.00 | 0.00 | 91 | 1011.6 |
| 20260505064504 | 45 | 184 | 7.8 | 16.5 | 0.00 | 0.00 | 0.00 | 92 | 1011.3 |
| 20260505063010 | 45 | 188 | 6.1 | 13.0 | 0.00 | 0.00 | 0.00 | 91 | 1011.2 |
| 20260505061514 | 45 | 172 | 6.1 | 12.2 | 0.00 | 0.00 | 0.00 | 91 | 1011.2 |
| 20260505060018 | 45 | 184 | 5.2 | 11.3 | 0.00 | 0.00 | 0.00 | 91 | 1011.2 |
| 20260505054512 | 45 | 175 | 5.2 | 10.4 | 0.00 | 0.00 | 0.00 | 90 | 1011.2 |
| 20260505053005 | 45 | 178 | 5.2 | 12.2 | 0.00 | 0.00 | 0.00 | 90 | 1011.2 |
| 20260505051512 | 45 | 139 | 6.1 | 10.4 | 0.00 | 0.00 | 0.00 | 90 | 1011.2 |
| 20260505041508 | 45 | 151 | 7.0 | 11.3 | 0.00 | 0.00 | 0.00 | 89 | 1011.3 |
| 20260505040011 | 45 | 181 | 5.2 | 12.2 | 0.00 | 0.00 | 0.00 | 89 | 1011.4 |
| 20260505034533 | 45 | 161 | 7.0 | 13.0 | 0.00 | 0.00 | 0.00 | 89 | 1011.3 |
| 20260505033022 | 45 | 175 | 7.0 | 11.3 | 0.00 | 0.01 | 0.00 | 89 | 1011.2 |
| 20260505031524 | 45 | 188 | 7.0 | 11.3 | 0.00 | 0.02 | 0.00 | 88 | 1011.0 |
| 20260505030024 | 45 | 202 | 7.0 | 12.2 | 0.00 | 0.03 | 0.00 | 88 | 1010.9 |
| 20260505024516 | 45 | 165 | 5.2 | 11.3 | 0.00 | 0.03 | 0.03 | 88 | 1010.9 |
| 20260505023018 | 45 | 190 | 6.1 | 13.0 | 0.00 | 0.03 | 0.03 | 88 | 1010.8 |
| 20260505021524 | 45 | 165 | 7.0 | 13.0 | 0.00 | 0.04 | 0.03 | 88 | 1010.7 |
| 20260505020023 | 45 | 161 | 7.0 | 13.0 | 0.00 | 0.05 | 0.03 | 88 | 1010.6 |
| 20260505014517 | 45 | 185 | 6.1 | 11.3 | 0.00 | 0.06 | 0.03 | 88 | 1010.5 |
| 20260505013018 | 45 | 183 | 5.2 | 11.3 | 0.00 | 0.07 | 0.03 | 89 | 1010.2 |
| 20260505011519 | 45 | 184 | 5.2 | 11.3 | 0.00 | 0.08 | 0.03 | 88 | 1010.0 |
| 20260505010022 | 45 | 180 | 6.1 | 13.9 | 0.00 | 0.11 | 0.03 | 89 | 1010.0 |
| 20260505004547 | 45 | 185 | 7.0 | 12.2 | 0.00 | 0.14 | 0.03 | 89 | 1009.9 |
| 20260505003027 | 45 | 199 | 7.8 | 13.0 | 0.00 | 0.19 | 0.03 | 89 | 1009.6 |
| 20260505001516 | 45 | 227 | 8.7 | 11.3 | 0.00 | 0.25 | 0.03 | 89 | 1009.6 |
| 20260505000020 | 45 | 201 | 7.0 | 12.2 | 0.00 | 0.31 | 0.03 | 88 | 1009.6 |
| 20260504234524 | 45 | 196 | 7.0 | 13.0 | 0.00 | 0.37 | 0.03 | 88 | 1009.2 |
| 20260504233025 | 45 | 174 | 7.8 | 12.2 | 0.00 | 0.42 | 0.03 | 87 | 1008.7 |
| 20260504231526 | 45 | 198 | 6.1 | 11.3 | 0.00 | 0.47 | 0.03 | 88 | 1008.6 |
| 20260504230016 | 45 | 200 | 7.8 | 11.3 | 0.00 | 0.51 | 0.03 | 87 | 1008.3 |
| 20260504224534 | 46 | 223 | 7.8 | 14.8 | 0.00 | 0.55 | 0.03 | 87 | 1008.2 |
| 20260504223030 | 46 | 204 | 6.1 | 13.0 | 0.00 | 0.60 | 0.03 | 85 | 1007.8 |
| 20260504221537 | 47 | 208 | 7.8 | 15.6 | 0.00 | 0.64 | 0.03 | 86 | 1007.6 |
| 20260504220028 | 47 | 182 | 7.0 | 15.6 | 0.00 | 0.70 | 0.03 | 85 | 1007.4 |
| 20260504214528 | 48 | 198 | 7.8 | 17.4 | 0.00 | 0.74 | 0.03 | 83 | 1007.6 |
| 20260504213011 | 49 | 174 | 8.7 | 19.1 | 0.00 | 0.74 | 0.03 | 82 | 1007.6 |
| 20260504211507 | 49 | 170 | 8.7 | 14.8 | 0.00 | 0.74 | 0.03 | 83 | 1007.5 |
| 20260504210012 | 48 | 157 | 7.8 | 13.9 | 0.00 | 0.74 | 0.03 | 86 | 1007.6 |
| 20260504204533 | 47 | 140 | 7.0 | 13.9 | 0.00 | 0.74 | 0.03 | 86 | 1007.9 |
| 20260504203018 | 47 | 200 | 7.0 | 13.9 | 0.00 | 0.74 | 0.03 | 85 | 1008.1 |
| 20260504201523 | 46 | 180 | 7.0 | 13.0 | 0.00 | 0.74 | 0.03 | 85 | 1008.0 |
| 20260504200009 | 47 | 170 | 7.0 | 13.9 | 0.00 | 0.74 | 0.03 | 85 | 1008.2 |
| 20260504194526 | 47 | 169 | 7.0 | 17.4 | 0.00 | 0.74 | 0.03 | 85 | 1007.9 |
| 20260504193018 | 48 | 194 | 7.8 | 15.6 | 0.00 | 0.74 | 0.03 | 85 | 1008.0 |
| 20260504191524 | 48 | 186 | 9.6 | 20.9 | 0.00 | 0.77 | 0.03 | 81 | 1007.9 |
| 20260504190030 | 51 | 165 | 11.3 | 20.0 | 0.00 | 0.79 | 0.03 | 79 | 1007.7 |
| 20260504184540 | 50 | 167 | 11.3 | 20.0 | 0.00 | 0.81 | 0.03 | 81 | 1007.5 |
| 20260504183011 | 50 | 209 | 10.4 | 20.0 | 0.00 | 0.85 | 0.03 | 81 | 1007.7 |
| 20260504181519 | 50 | 184 | 10.4 | 21.7 | 0.00 | 0.88 | 0.03 | 80 | 1007.6 |
| 20260504180033 | 50 | 162 | 11.3 | 22.6 | 0.00 | 0.90 | 0.03 | 80 | 1007.5 |
| 20260504174523 | 51 | 201 | 8.7 | 19.1 | 0.00 | 0.93 | 0.03 | 78 | 1007.6 |
| 20260504173014 | 51 | 189 | 9.6 | 20.9 | 0.00 | 0.98 | 0.03 | 78 | 1007.6 |
| 20260504171514 | 50 | 209 | 10.4 | 17.4 | 0.00 | 1.02 | 0.03 | 80 | 1007.7 |